Cloquet, MN

4:40 AM CST on December 09, 2019 (GMT -0600)
Cloquet Carlton County

Weather History for KCOQ - October, 2019

Change the Weather History Date:

Saturday, October 5, 2019

  Actual Average Record
Temperature  
Mean Temperature 46 °F -  
Max Temperature 51 °F 56 °F 73 °F (1996)
Min Temperature 42 °F 36 °F 26 °F (2003)
Degree Days  
Heating Degree Days 18    
Moisture  
Dew Point 43 °F    
Average Humidity 89    
Maximum Humidity 100    
Minimum Humidity 76    
Precipitation  
Precipitation 0.16 in - - ()
Sea Level Pressure  
Sea Level Pressure 29.84 in    
Wind  
Wind Speed 7 mph ()    
Max Wind Speed 17 mph    
Max Gust Speed 32 mph    
Visibility 6.9 miles    
Events Rain    
Averages and records for this station are not official NWS values.
T = Trace of Precipitation, MM = Missing Value Source: Averaged Metar Reports

Daily Weather History Graph

Daily Weather History Graph

Search for Another Location

Airport or City:

Astronomy

Oct. 05, 2019 Rise Set
Actual Time 7:13 AM CDT 6:42 PM CDT
Civil Twilight 6:43 AM CDT 7:12 PM CDT
Nautical Twilight 6:08 AM CDT 7:47 PM CDT
Astronomical Twilight 5:32 AM CDT 8:22 PM CDT
Moon 3:00 PM CDT (10/5) 11:45 PM CDT (10/5)
Length of Visible Light 12h 28m
Length of Day
11h 28m
Waxing Crescent, 50% of the Moon is Illuminated
Oct 5
Waxing Crescent
Oct 13
Full
Oct 21
Last Quarter
Oct 27
New
Nov 4
First Quarter

Hourly Weather History & Observations

Time (CDT) Temp. Windchill Dew Point Humidity Pressure Visibility Wind Dir Wind Speed Gust Speed Precip Events Conditions
12:15 AM 42.8 °F 39.3 °F 35.6 °F 76% 30.23 in 10.0 mi ESE 5.8 mph - N/A   Overcast
12:16 AM 42.8 °F 40.1 °F 35.6 °F 76% 30.23 in 10.0 mi SE 4.6 mph - N/A   Overcast
12:35 AM 42.8 °F 40.1 °F 37.4 °F 81% 30.22 in 10.0 mi SE 4.6 mph - N/A   Overcast
12:55 AM 42.8 °F 39.3 °F 37.4 °F 81% 30.20 in 10.0 mi ESE 5.8 mph - N/A   Overcast
1:15 AM 42.8 °F 41.1 °F 37.4 °F 81% 30.20 in 10.0 mi SE 3.5 mph - N/A   Overcast
1:16 AM 42.8 °F 41.1 °F 37.4 °F 81% 30.20 in 10.0 mi SE 3.5 mph - N/A   Overcast
1:35 AM 42.8 °F 40.1 °F 37.4 °F 81% 30.19 in 10.0 mi ESE 4.6 mph - N/A   Overcast
1:36 AM 42.8 °F 40.1 °F 37.4 °F 81% 30.19 in 10.0 mi ESE 4.6 mph - N/A   Overcast
1:55 AM 42.8 °F 41.1 °F 37.4 °F 81% 30.18 in 10.0 mi ESE 3.5 mph - N/A   Mostly Cloudy
1:56 AM 42.8 °F 41.1 °F 37.4 °F 81% 30.18 in 10.0 mi ESE 3.5 mph - N/A   Mostly Cloudy
2:15 AM 42.8 °F 41.1 °F 37.4 °F 81% 30.18 in 10.0 mi ESE 3.5 mph - N/A   Scattered Clouds
2:16 AM 42.8 °F 41.1 °F 37.4 °F 81% 30.18 in 10.0 mi ESE 3.5 mph - N/A   Scattered Clouds
2:35 AM 42.8 °F 39.3 °F 37.4 °F 81% 30.16 in 10.0 mi ESE 5.8 mph - N/A   Mostly Cloudy
2:36 AM 42.8 °F 39.3 °F 37.4 °F 81% 30.16 in 10.0 mi ESE 5.8 mph - N/A   Overcast
2:55 AM 42.8 °F 38.6 °F 37.4 °F 81% 30.14 in 10.0 mi ESE 6.9 mph - N/A   Overcast
3:15 AM 42.8 °F 38.6 °F 37.4 °F 81% 30.12 in 10.0 mi ESE 6.9 mph - N/A   Overcast
3:35 AM 42.8 °F 37.0 °F 37.4 °F 81% 30.10 in 10.0 mi East 10.4 mph - N/A   Overcast
3:36 AM 42.8 °F 37.0 °F 37.4 °F 81% 30.10 in 10.0 mi ESE 10.4 mph - N/A   Overcast
3:55 AM 42.8 °F 38.0 °F 37.4 °F 81% 30.09 in 10.0 mi ESE 8.1 mph - N/A Rain Rain
4:15 AM 42.8 °F 37.5 °F 39.2 °F 87% 30.07 in 10.0 mi ESE 9.2 mph - N/A Rain Rain
4:35 AM 42.8 °F 38.0 °F 39.2 °F 87% 30.07 in 7.0 mi ESE 8.1 mph - 0.01 in Rain Light Rain
4:55 AM 42.8 °F 38.6 °F 39.2 °F 87% 30.08 in 10.0 mi ESE 6.9 mph - 0.01 in Rain Rain
4:56 AM 42.8 °F 38.6 °F 39.2 °F 87% 30.08 in 10.0 mi ESE 6.9 mph - N/A Rain Rain
5:15 AM 42.8 °F 40.1 °F 39.2 °F 87% 30.08 in 7.0 mi ESE 4.6 mph - 0.01 in Rain Rain
5:35 AM 42.8 °F 39.3 °F 39.2 °F 87% 30.09 in 4.0 mi ESE 5.8 mph - N/A   Overcast
5:55 AM 42.8 °F 40.1 °F 39.2 °F 87% 30.07 in 4.0 mi ESE 4.6 mph - 0.01 in   Overcast
5:56 AM 42.8 °F 39.3 °F 39.2 °F 87% 30.07 in 4.0 mi East 5.8 mph - N/A   Overcast
6:15 AM 42.8 °F 40.1 °F 39.2 °F 87% 30.07 in 5.0 mi ESE 4.6 mph - 0.01 in Rain Heavy Rain
6:35 AM 42.8 °F 38.0 °F 41.0 °F 93% 30.05 in 7.0 mi ESE 8.1 mph - N/A Rain Rain
6:36 AM 42.8 °F 38.0 °F 41.0 °F 93% 30.05 in 7.0 mi ESE 8.1 mph - 0.01 in Rain Rain
6:55 AM 42.8 °F 37.0 °F 41.0 °F 93% 30.01 in 7.0 mi ESE 10.4 mph - 0.01 in Rain Rain
6:56 AM 42.8 °F 36.6 °F 41.0 °F 93% 30.01 in 10.0 mi ESE 11.5 mph - N/A Rain Rain
7:15 AM 42.8 °F 36.2 °F 41.0 °F 93% 29.99 in 10.0 mi ESE 12.7 mph 18.4 mph 0.01 in Rain Light Rain
7:16 AM 42.8 °F 36.6 °F 41.0 °F 93% 29.99 in 10.0 mi ESE 11.5 mph 18.4 mph 0.01 in Rain Light Rain
7:35 AM 42.8 °F 38.0 °F 41.0 °F 93% 29.99 in 10.0 mi SE 8.1 mph - 0.01 in Rain Rain
7:55 AM 42.8 °F 37.0 °F 41.0 °F 93% 29.96 in 10.0 mi ESE 10.4 mph 16.1 mph 0.01 in Rain Rain
8:15 AM 42.8 °F 38.0 °F 41.0 °F 93% 29.97 in 7.0 mi ESE 8.1 mph 18.4 mph N/A Rain Rain
8:35 AM 42.8 °F 37.5 °F 41.0 °F 93% 29.96 in 7.0 mi SE 9.2 mph - N/A Rain Rain
8:55 AM 42.8 °F 37.0 °F 41.0 °F 93% 29.94 in 10.0 mi SE 10.4 mph 18.4 mph 0.01 in Rain Light Rain
9:15 AM 42.8 °F 37.5 °F 41.0 °F 93% 29.92 in 10.0 mi ESE 9.2 mph 18.4 mph 0.01 in Rain Light Rain
9:16 AM 42.8 °F 38.6 °F 41.0 °F 93% 29.92 in 10.0 mi ESE 6.9 mph 18.4 mph 0.01 in Rain Rain
9:35 AM 44.6 °F 40.2 °F 42.8 °F 93% 29.90 in 10.0 mi SE 8.1 mph - 0.01 in   Light Drizzle
9:55 AM 44.6 °F 40.2 °F 42.8 °F 93% 29.89 in 7.0 mi SE 8.1 mph 16.1 mph 0.01 in Rain Rain
9:56 AM 44.6 °F 39.2 °F 42.8 °F 93% 29.88 in 7.0 mi SE 10.4 mph 20.7 mph N/A Rain Light Rain
10:15 AM 44.6 °F 40.2 °F 42.8 °F 93% 29.87 in 2.0 mi ESE 8.1 mph 18.4 mph N/A   Drizzle
10:35 AM 44.6 °F 40.2 °F 42.8 °F 93% 29.85 in 3.0 mi SE 8.1 mph - 0.01 in Rain Light Rain
10:36 AM 44.6 °F 40.7 °F 42.8 °F 93% 29.85 in 3.0 mi ESE 6.9 mph - 0.01 in Rain Rain
10:55 AM 44.6 °F 40.2 °F 42.8 °F 93% 29.84 in 2.5 mi ESE 8.1 mph - 0.01 in Rain Light Rain
10:56 AM 44.6 °F 40.7 °F 42.8 °F 93% 29.84 in 2.5 mi SE 6.9 mph - N/A Rain Light Rain
11:15 AM 44.6 °F 41.4 °F 42.8 °F 93% 29.82 in 2.5 mi ESE 5.8 mph - N/A   Overcast
11:35 AM 44.6 °F 39.7 °F 42.8 °F 93% 29.82 in 4.0 mi SE 9.2 mph - 0.01 in   Overcast
11:55 AM 46.4 °F 41.9 °F 44.6 °F 93% 29.80 in 2.0 mi SE 9.2 mph 16.1 mph 0.01 in   Drizzle
12:15 PM 46.4 °F 43.5 °F 44.6 °F 93% 29.79 in 2.0 mi SE 5.8 mph - 0.01 in   Drizzle
12:35 PM 46.4 °F 42.9 °F 44.6 °F 93% 29.77 in 2.0 mi ESE 6.9 mph - N/A   Drizzle
12:36 PM 46.4 °F 42.9 °F 44.6 °F 93% 29.77 in 2.0 mi ESE 6.9 mph - 0.01 in   Drizzle
12:55 PM 46.4 °F 41.9 °F 44.6 °F 93% 29.75 in 2.0 mi SE 9.2 mph - 0.01 in   Drizzle
1:15 PM 46.4 °F 42.9 °F 44.6 °F 93% 29.73 in 2.5 mi SE 6.9 mph - 0.01 in   Drizzle
1:35 PM 46.4 °F 41.9 °F 44.6 °F 93% 29.71 in 2.5 mi SE 9.2 mph - 0.01 in   Drizzle
1:55 PM 46.4 °F 42.9 °F 44.6 °F 93% 29.70 in 1.8 mi SE 6.9 mph - 0.01 in   Heavy Drizzle
2:15 PM 46.4 °F 42.4 °F 44.6 °F 93% 29.68 in 2.0 mi SE 8.1 mph - 0.01 in   Heavy Drizzle
2:16 PM 46.4 °F 42.4 °F 44.6 °F 93% 29.68 in 2.5 mi SE 8.1 mph - 0.01 in   Heavy Drizzle
2:35 PM 46.4 °F 42.9 °F 46.4 °F 100% 29.66 in 2.5 mi SE 6.9 mph - 0.01 in   Drizzle
2:55 PM 48.2 °F - 46.4 °F 93% 29.65 in 2.0 mi SE 6.9 mph - 0.01 in   Heavy Drizzle
2:56 PM 48.2 °F - 46.4 °F 93% 29.65 in 2.0 mi SE 6.9 mph - N/A   Drizzle
3:15 PM 48.2 °F - 46.4 °F 93% 29.63 in 2.0 mi SE 6.9 mph - 0.01 in   Drizzle
3:16 PM 48.2 °F - 46.4 °F 93% 29.63 in 2.0 mi SE 8.1 mph - 0.01 in   Drizzle
3:35 PM 48.2 °F - 46.4 °F 93% 29.62 in 2.5 mi SE 8.1 mph - 0.01 in   Drizzle
3:36 PM 48.2 °F - 46.4 °F 93% 29.62 in 2.5 mi SE 9.2 mph - 0.01 in Rain Rain
3:55 PM 48.2 °F - 46.4 °F 93% 29.60 in 10.0 mi SE 6.9 mph - 0.01 in   Light Drizzle
3:56 PM 48.2 °F - 46.4 °F 93% 29.60 in 10.0 mi SE 6.9 mph - N/A   Light Drizzle
4:15 PM 48.2 °F - 46.4 °F 93% 29.60 in 3.0 mi SSE 8.1 mph - 0.01 in Rain Rain
4:16 PM 48.2 °F - 46.4 °F 93% 29.60 in 3.0 mi SSE 6.9 mph - 0.01 in Rain Rain
4:35 PM 48.2 °F - 46.4 °F 93% 29.60 in 2.0 mi South 6.9 mph - 0.01 in   Heavy Drizzle
4:55 PM 48.2 °F - 46.4 °F 93% 29.59 in 2.5 mi South 4.6 mph - N/A   Heavy Drizzle
5:15 PM 50.0 °F - 46.4 °F 87% 29.58 in 4.0 mi SSE 8.1 mph - 0.01 in   Drizzle
5:35 PM 50.0 °F - 48.2 °F 94% 29.58 in 2.5 mi South 8.1 mph - 0.01 in Rain Rain
5:36 PM 50.0 °F - 48.2 °F 94% 29.58 in 2.5 mi South 8.1 mph - 0.01 in Rain Rain
5:55 PM 50.0 °F - 48.2 °F 94% 29.57 in 5.0 mi SSE 8.1 mph - 0.01 in   Drizzle
6:15 PM 50.0 °F - 48.2 °F 94% 29.57 in 10.0 mi South 6.9 mph - N/A   Overcast
6:35 PM 51.8 °F - 48.2 °F 88% 29.56 in 7.0 mi South 9.2 mph - 0.01 in Rain Rain
6:55 PM 51.8 °F - 48.2 °F 88% 29.56 in 10.0 mi South 6.9 mph - 0.01 in   Drizzle
7:15 PM 51.8 °F - 48.2 °F 88% 29.56 in 10.0 mi South 8.1 mph - N/A   Overcast
7:16 PM 51.8 °F - 48.2 °F 88% 29.56 in 10.0 mi South 9.2 mph - N/A   Overcast
7:35 PM 51.8 °F - 48.2 °F 88% 29.55 in 3.0 mi SSW 6.9 mph - 0.01 in Rain Rain
7:55 PM 51.8 °F - 48.2 °F 88% 29.56 in 10.0 mi SW 9.2 mph 21.9 mph 0.01 in   Overcast
7:56 PM 51.8 °F - 48.2 °F 88% 29.56 in 10.0 mi SW 12.7 mph 21.9 mph N/A   Overcast
8:15 PM 51.8 °F - 48.2 °F 88% 29.56 in 10.0 mi SW 13.8 mph 20.7 mph N/A   Overcast
8:35 PM 50.0 °F - 48.2 °F 94% 29.57 in 10.0 mi WSW 17.3 mph 32.2 mph N/A   Overcast
8:36 PM 50.0 °F - 48.2 °F 94% 29.56 in 10.0 mi WSW 17.3 mph 32.2 mph N/A   Overcast
8:55 PM 48.2 °F - 46.4 °F 93% 29.58 in 10.0 mi WSW 13.8 mph 24.2 mph N/A   Overcast
9:15 PM 48.2 °F - 44.6 °F 87% 29.59 in 10.0 mi WSW 16.1 mph 26.5 mph N/A   Overcast
9:35 PM 48.2 °F - 42.8 °F 82% 29.60 in 10.0 mi WSW 17.3 mph 25.3 mph N/A   Overcast
9:36 PM 48.2 °F - 42.8 °F 82% 29.60 in 10.0 mi West 16.1 mph 24.2 mph N/A   Overcast
9:55 PM 48.2 °F - 42.8 °F 82% 29.61 in 7.0 mi West 16.1 mph 24.2 mph N/A   Overcast
10:15 PM 46.4 °F 40.7 °F 42.8 °F 87% 29.62 in 4.0 mi WSW 12.7 mph 21.9 mph N/A   Drizzle
10:35 PM 46.4 °F 40.7 °F 42.8 °F 87% 29.63 in 7.0 mi West 12.7 mph 17.3 mph N/A   Overcast
10:55 PM 46.4 °F 41.5 °F 42.8 °F 87% 29.64 in 10.0 mi WSW 10.4 mph 20.7 mph N/A   Overcast
11:15 PM 46.4 °F 41.5 °F 42.8 °F 87% 29.64 in 7.0 mi West 10.4 mph 20.7 mph N/A   Overcast
11:16 PM 46.4 °F 41.5 °F 42.8 °F 87% 29.64 in 7.0 mi West 10.4 mph 20.7 mph N/A   Overcast
11:35 PM 46.4 °F 40.4 °F 42.8 °F 87% 29.65 in 10.0 mi West 13.8 mph 19.6 mph N/A   Overcast
11:55 PM 46.4 °F 40.7 °F 41.0 °F 81% 29.65 in 10.0 mi West 12.7 mph 23.0 mph N/A   Overcast
11:56 PM 46.4 °F 40.7 °F 41.0 °F 81% 29.65 in 10.0 mi WSW 12.7 mph 23.0 mph N/A   Overcast